Overview Statistics Trail Chart Weather Telemetry Raw packets
 

This is the latest recevied weather packets stored in our database for station/object K7FLA. If no packets are shown the sender has not sent any weather packets the latest 10 day(s).

<< 65 66 67 68 69 70 71 >>
Time Temp. Humidity Pressure Rain* Wind** Luminosity Snow
1788211200 33.33° C 23% 1095 hPa 0 mm - 670 W/m² -
1788210896 33.33° C 23% 1095.2 hPa 0 mm - 674 W/m² -
1788210594 33.33° C 22% 1095.2 hPa 0 mm - 682 W/m² -
1788210290 33.89° C 23% 1095.2 hPa 0 mm - 691 W/m² -
1788209986 33.89° C 22% 1095.3 hPa 0 mm - 701 W/m² -
1788209681 33.89° C 24% 1095.4 hPa 0 mm - 712 W/m² -
1788209377 33.89° C 22% 1095.3 hPa 0 mm - 722 W/m² -
1788209076 33.33° C 22% 1095.6 hPa 0 mm - 725 W/m² -
1788208775 33.33° C 23% 1095.4 hPa 0 mm - 735 W/m² -
1788208470 33.33° C 23% 1095.6 hPa 0 mm - 747 W/m² -
1788208168 33.89° C 21% 1095.6 hPa 0 mm - 746 W/m² -
1788207864 33.33° C 24% 1095.4 hPa 0 mm - 755 W/m² -
1788207558 33.89° C 21% 1095.6 hPa 0 mm - 759 W/m² -
1788207256 34.44° C 23% 1095.7 hPa 0 mm - 762 W/m² -
1788206953 34.44° C 23% 1095.5 hPa 0 mm - 766 W/m² -
1788206663 33.89° C 23% 1095.5 hPa 0 mm - 771 W/m² -
1788206342 33.89° C 24% 1095.6 hPa 0 mm - 778 W/m² -
1788206038 34.44° C 25% 1095.7 hPa 0 mm - 777 W/m² -
1788205733 34.44° C 24% 1095.7 hPa 0 mm - 773 W/m² -
1788205429 33.89° C 25% 1095.5 hPa 0 mm - 775 W/m² -
1788205127 34.44° C 24% 1095.6 hPa 0 mm - 768 W/m² -
1788204823 34.44° C 27% 1095.9 hPa 0 mm - 776 W/m² -
1788204518 34.44° C 24% 1095.7 hPa 0 mm - 781 W/m² -
1788204212 34.44° C 23% 1095.9 hPa 0 mm - 778 W/m² -
1788203908 34.44° C 24% 1095.9 hPa 0 mm - 780 W/m² -

* Rain latest hour (hover to see other rain measurements)
** Current wind speed in m/s (hover to see current wind gust speed)